Location: Hillern
(53.0557°N, 9.8577°E)
Time: 20:39:01
(UTC+00:00)

Cosmos 1570 Rocket - Pass Details

Date: 19 May 2025
Orbit: 759 x 785 km, 74.1° (Epoch: 20 June)

Event Time Altitude Azimuth Distance (km) Brightness Sun altitude
Rises 21:20:27 0° 210° (SSW) 3,220 6.9 -12.7°
Reaches altitude 10° 21:22:48 10° 213° (SSW) 2,302 6.2 -12.9°
Maximum altitude 21:28:02 73° 298° (WNW) 811 4.3 -13.2°
Drops below altitude 10° 21:33:20 10° 23° (NNE) 2,335 7.1 -13.6°
Sets 21:35:45 0° 26° (NNE) 3,270 7.9 -13.7°
